Location: Glencliff
(36.1226°N, 86.7183°W)
Time: 12:22:33
(UTC+00:00)

OAO 3 Rocket - Pass Details

Date: 25 August 2019
Orbit: 630 x 682 km, 35.0° (Epoch: 15 September)

Event Time Altitude Azimuth Distance (km) Brightness Sun altitude
Rises 01:12:46 0° 272° (W) 3,011 8.1 -9.9°
Reaches altitude 10° 01:15:10 10° 270° (W) 2,090 7.0 -10.3°
Maximum altitude 01:20:03 77° 185° (S) 681 3.2 -11.2°
Enters shadow 01:23:49 16° 101° (ESE) 1,668 4.6 -11.9°
